Location: Newark
(42.8481°N, 0.4872°E)
Time: 08:36:24
(UTC+00:00)

Transit 2A Rocket - Pass Details

Date: 27 October 2020
Orbit: 588 x 914 km, 66.7° (Epoch: 29 November)

Event Time Altitude Azimuth Distance (km) Brightness Sun altitude
Rises 09:44:26 0° 208° (SSW) 3,528 8.8 28.0°
Reaches altitude 10° 09:46:57 10° 208° (SSW) 2,595 8.2 28.3°
Maximum altitude 09:53:03 87° 121° (ESE) 912 6.0 28.8°
Drops below altitude 10° 09:59:02 10° 32° (NNE) 2,535 7.5 29.4°
Sets 10:01:28 0° 32° (NNE) 3,440 8.1 29.6°
